OneWeb SL0095

operational
NORAD ID: 45436 Int'l Des: 2020-020 Owner: ONEWEB Country: UK Constellation: oneweb
LEOCIRCULARPOLARONEWEB_TYPE

Über OneWeb SL0095

Beschreibung wird geladen...

Live-Position

3D-Globus wird geladen...

Nächste Überflüge

Höhenverlauf

Altitude vs Time

uPlot chart will show altitude changes over time

Zweizeiliger Elementsatz

1 45436U 20020N 26034.52744880 -.00000426 00000-0 -12385-2 0 9994
2 45436 87.8818 47.6588 0002608 95.0209 265.1216 13.11417713285156
Epoch: 3. Feb. 2026 • Age: 16 hours

Aktueller Status

Höhe 1227.6 km
Geschwindigkeit 7.24 km/s
Subsatellitenpunkt -24.26°S, 163.05°W
Startdatum 21. März 2020
Alter 5.8 years
Typ internet

Technische Details

Klassifizierung Payload
Masse 148.00 kg
Trockenmasse 140.00 kg
Gesamtmasse 148.00 kg
Länge 1.30 m
Durchmesser 1.00 m
Spannweite 5.00 m
Form Trapezoid+2 pan
Hersteller ONEWUS
Bus-Typ ARROW
Phasenstatus In Orbit
Besitzer/Staat ONEWEB/UK

Große Konstellationen

Loading constellations...